• In Schweiz
  • Länderverzeichnis
  • Für 7 Tage
  • Wassertemperatur
  • Satellitenkarten
  • Wetterkarte
  • Widgets
  • user-avatar
    Anmelden

    Stündliche Wetter Brisbane

    Heute, 19 August, Sonntag

    Zeit Temperatur Niederschläge Wind Luftdruck Luftfeuchtigkeit
    00:00 +16°C° 0 mm 3 m/S 759 mmHg 43%
    01:00 +14°C° 0 mm 3 m/S 759 mmHg 42%
    02:00 +14°C° 0 mm 3 m/S 759 mmHg 42%
    03:00 +13°C° 0 mm 3 m/S 759 mmHg 42%
    04:00 +14°C° 0 mm 2 m/S 759 mmHg 40%
    05:00 +13°C° 0 mm 3 m/S 759 mmHg 40%
    06:00 +13°C° 0 mm 3 m/S 759 mmHg 40%
    07:00 +13°C° 0 mm 4 m/S 759 mmHg 40%
    08:00 +15°C° 0 mm 4 m/S 759 mmHg 36%
    09:00 +19°C° 0 mm 5 m/S 760 mmHg 31%
    10:00 +22°C° 0 mm 5 m/S 760 mmHg 25%
    11:00 +22°C° 0 mm 6 m/S 759 mmHg 22%
    12:00 +23°C° 0 mm 6 m/S 759 mmHg 19%
    13:00 +23°C° 0 mm 7 m/S 758 mmHg 17%
    14:00 +23°C° 0 mm 7 m/S 758 mmHg 16%
    15:00 +22°C° 0 mm 7 m/S 758 mmHg 16%
    16:00 +21°C° 0 mm 7 m/S 758 mmHg 16%
    17:00 +18°C° 0 mm 7 m/S 759 mmHg 18%
    18:00 +16°C° 0 mm 7 m/S 759 mmHg 20%
    19:00 +15°C° 0 mm 7 m/S 760 mmHg 23%
    20:00 +14°C° 0 mm 7 m/S 760 mmHg 26%
    21:00 +12°C° 0 mm 7 m/S 761 mmHg 29%
    22:00 +13°C° 0 mm 6 m/S 761 mmHg 31%
    23:00 +11°C° 0 mm 6 m/S 761 mmHg 33%

    Morgen, 20 August, Montag

    Zeit Temperatur Niederschläge Wind Luftdruck Luftfeuchtigkeit
    00:00 +11°C° 0 mm 7 m/S 761 mmHg 34%
    01:00 +11°C° 0 mm 8 m/S 762 mmHg 36%
    02:00 +10°C° 0 mm 7 m/S 762 mmHg 37%
    03:00 +9°C° 0 mm 7 m/S 762 mmHg 38%
    04:00 +9°C° 0 mm 6 m/S 762 mmHg 39%
    05:00 +9°C° 0 mm 6 m/S 762 mmHg 39%
    06:00 +8°C° 0 mm 6 m/S 762 mmHg 39%
    07:00 +8°C° 0 mm 6 m/S 762 mmHg 40%
    08:00 +11°C° 0 mm 6 m/S 762 mmHg 32%
    09:00 +14°C° 0 mm 6 m/S 762 mmHg 24%
    10:00 +16°C° 0 mm 5 m/S 762 mmHg 17%
    11:00 +17°C° 0 mm 5 m/S 762 mmHg 15%
    12:00 +20°C° 0 mm 5 m/S 762 mmHg 12%
    13:00 +21°C° 0 mm 4 m/S 761 mmHg 10%
    14:00 +21°C° 0 mm 4 m/S 761 mmHg 11%
    15:00 +21°C° 0 mm 4 m/S 761 mmHg 12%
    16:00 +21°C° 0 mm 3 m/S 761 mmHg 12%
    17:00 +19°C° 0 mm 3 m/S 761 mmHg 18%
    18:00 +17°C° 0 mm 3 m/S 762 mmHg 23%
    19:00 +13°C° 0 mm 3 m/S 762 mmHg 29%
    20:00 +13°C° 0 mm 2 m/S 763 mmHg 30%
    21:00 +12°C° 0 mm 2 m/S 763 mmHg 32%
    22:00 +12°C° 0 mm 2 m/S 764 mmHg 34%
    23:00 +10°C° 0 mm 2 m/S 764 mmHg 34%

    übermorgen, 21 August, Dienstag

    Zeit Temperatur Niederschläge Wind Luftdruck Luftfeuchtigkeit
    00:00 +9°C° 0 mm 2 m/S 764 mmHg 34%
    01:00 +9°C° 0 mm 3 m/S 764 mmHg 34%
    02:00 +8°C° 0 mm 3 m/S 763 mmHg 35%
    03:00 +8°C° 0 mm 3 m/S 763 mmHg 37%
    04:00 +7°C° 0 mm 3 m/S 763 mmHg 39%
    05:00 +7°C° 0 mm 3 m/S 763 mmHg 39%
    06:00 +8°C° 0 mm 3 m/S 763 mmHg 40%
    07:00 +8°C° 0 mm 3 m/S 763 mmHg 41%
    08:00 +11°C° 0 mm 3 m/S 763 mmHg 34%
    09:00 +14°C° 0 mm 3 m/S 763 mmHg 28%
    10:00 +18°C° 0 mm 2 m/S 763 mmHg 21%
    11:00 +20°C° 0 mm 2 m/S 762 mmHg 19%
    12:00 +23°C° 0 mm 2 m/S 761 mmHg 16%
    13:00 +24°C° 0 mm 2 m/S 760 mmHg 14%
    14:00 +24°C° 0 mm 3 m/S 759 mmHg 15%
    15:00 +24°C° 0 mm 3 m/S 759 mmHg 16%
    16:00 +23°C° 0 mm 4 m/S 759 mmHg 16%
    17:00 +21°C° 0 mm 4 m/S 759 mmHg 20%
    18:00 +18°C° 0 mm 4 m/S 759 mmHg 24%
    19:00 +15°C° 0 mm 4 m/S 760 mmHg 28%
    20:00 +14°C° 0 mm 4 m/S 760 mmHg 30%
    21:00 +13°C° 0 mm 4 m/S 761 mmHg 33%
    22:00 +12°C° 0 mm 4 m/S 761 mmHg 35%
    23:00 +11°C° 0 mm 4 m/S 761 mmHg 37%

    22 August, Mittwoch

    Zeit Temperatur Niederschläge Wind Luftdruck Luftfeuchtigkeit
    00:00 +10°C° 0 mm 4 m/S 761 mmHg 40%
    01:00 +10°C° 0 mm 4 m/S 761 mmHg 42%
    02:00 +9°C° 0 mm 3 m/S 761 mmHg 44%
    03:00 +9°C° 0 mm 3 m/S 761 mmHg 46%
    04:00 +8°C° 0 mm 3 m/S 761 mmHg 48%
    05:00 +8°C° 0 mm 3 m/S 761 mmHg 48%
    06:00 +9°C° 0 mm 3 m/S 762 mmHg 48%
    07:00 +9°C° 0 mm 3 m/S 762 mmHg 48%
    08:00 +12°C° 0 mm 3 m/S 762 mmHg 40%
    09:00 +16°C° 0 mm 3 m/S 762 mmHg 32%
    10:00 +20°C° 0 mm 3 m/S 762 mmHg 25%
    11:00 +21°C° 0 mm 3 m/S 761 mmHg 22%
    12:00 +22°C° 0 mm 3 m/S 760 mmHg 19%
    13:00 +25°C° 0 mm 3 m/S 759 mmHg 17%
    14:00 +24°C° 0 mm 3 m/S 759 mmHg 17%
    15:00 +24°C° 0 mm 3 m/S 759 mmHg 18%
    16:00 +23°C° 0 mm 4 m/S 759 mmHg 18%
    17:00 +21°C° 0 mm 3 m/S 759 mmHg 23%
    18:00 +18°C° 0 mm 3 m/S 760 mmHg 29%
    19:00 +16°C° 0 mm 3 m/S 761 mmHg 34%
    20:00 +15°C° 0 mm 2 m/S 761 mmHg 35%
    21:00 +14°C° 0 mm 2 m/S 762 mmHg 37%
    22:00 +13°C° 0 mm 2 m/S 762 mmHg 39%
    23:00 +12°C° 0 mm 2 m/S 762 mmHg 41%

    23 August, Donnerstag

    Zeit Temperatur Niederschläge Wind Luftdruck Luftfeuchtigkeit
    00:00 +12°C° 0 mm 2 m/S 762 mmHg 43%
    01:00 +10°C° 0 mm 2 m/S 762 mmHg 45%
    02:00 +10°C° 0 mm 2 m/S 762 mmHg 46%
    03:00 +9°C° 0 mm 2 m/S 761 mmHg 48%
    04:00 +9°C° 0 mm 2 m/S 761 mmHg 49%
    05:00 +9°C° 0 mm 2 m/S 762 mmHg 49%
    06:00 +9°C° 0 mm 2 m/S 762 mmHg 50%
    07:00 +10°C° 0 mm 2 m/S 763 mmHg 50%
    08:00 +14°C° 0 mm 2 m/S 763 mmHg 44%
    09:00 +18°C° 0 mm 2 m/S 763 mmHg 38%
    10:00 +23°C° 0 mm 1 m/S 763 mmHg 32%
    11:00 +24°C° 0 mm 1 m/S 762 mmHg 28%
    12:00 +25°C° 0 mm 1 m/S 761 mmHg 24%
    13:00 +27°C° 0 mm 1 m/S 761 mmHg 20%
    14:00 +26°C° 0 mm 2 m/S 760 mmHg 22%
    15:00 +25°C° 0 mm 2 m/S 760 mmHg 24%
    16:00 +24°C° 0 mm 3 m/S 760 mmHg 26%
    17:00 +21°C° 0 mm 3 m/S 760 mmHg 35%
    18:00 +19°C° 0 mm 3 m/S 761 mmHg 44%
    19:00 +17°C° 0 mm 3 m/S 761 mmHg 53%
    20:00 +16°C° 0 mm 2 m/S 762 mmHg 59%
    21:00 +15°C° 0 mm 2 m/S 762 mmHg 64%
    22:00 +14°C° 0 mm 2 m/S 762 mmHg 70%
    23:00 +14°C° 0 mm 2 m/S 762 mmHg 73%

    24 August, Freitag

    Zeit Temperatur Niederschläge Wind Luftdruck Luftfeuchtigkeit
    00:00 +13°C° 0 mm 2 m/S 762 mmHg 76%
    01:00 +13°C° 0 mm 2 m/S 762 mmHg 79%
    02:00 +13°C° 0 mm 2 m/S 762 mmHg 80%
    03:00 +13°C° 0 mm 2 m/S 762 mmHg 82%
    04:00 +13°C° 0 mm 2 m/S 762 mmHg 84%
    05:00 +13°C° 0 mm 1 m/S 762 mmHg 83%
    06:00 +13°C° 0 mm 1 m/S 763 mmHg 83%
    07:00 +14°C° 0 mm 1 m/S 763 mmHg 82%
    08:00 +17°C° 0 mm 2 m/S 763 mmHg 70%
    09:00 +20°C° 0 mm 2 m/S 763 mmHg 58%
    10:00 +23°C° 0 mm 2 m/S 763 mmHg 46%
    11:00 +24°C° 0,1 mm 3 m/S 762 mmHg 46%
    12:00 +24°C° 0,1 mm 3 m/S 762 mmHg 45%
    13:00 +24°C° 0,1 mm 3 m/S 761 mmHg 44%
    14:00 +23°C° 0,1 mm 4 m/S 761 mmHg 47%
    15:00 +23°C° 0,1 mm 4 m/S 761 mmHg 49%
    16:00 +22°C° 0,1 mm 4 m/S 760 mmHg 52%
    17:00 +21°C° 0 mm 4 m/S 761 mmHg 57%
    18:00 +19°C° 0 mm 4 m/S 761 mmHg 62%
    19:00 +18°C° 0 mm 4 m/S 762 mmHg 67%
    20:00 +18°C° 0,3 mm 4 m/S 762 mmHg 71%
    21:00 +17°C° 0,3 mm 4 m/S 763 mmHg 74%
    22:00 +17°C° 0,3 mm 4 m/S 763 mmHg 77%
    23:00 +17°C° 0,4 mm 4 m/S 763 mmHg 79%
    Mehr zeigen